CZ-6A DEB, 60858

Orbit data source: Space-Track

CZ-6A DEB, 60858 is space debris in LEO originally from a launch on Tue, 06 Aug 2024 UTC launched from the Taiyaun Space Center, China (TSC). Debris objects in space refer to the collection of defunct objects orbiting the Earth. Examples of debris include non-operational satellites, rocket bodies, and fragments generated from explosions, collisions, or faulty payload assembly.

Loading next visibility...
Identifier
60858, 2024-140JM
Orbit
LEO
Country
Flag of CNCN / PRC
Related business
Manufacturer
SAST
Mission
Spacecraft
Bus & Motor
Unknown
Mass
Unknown
Launch date (UTC)
2024-08-06 (2 years ago)
Launch vehicle
Unknown
Launch site
Taiyaun Space Center, China (TSC)
Object type
Payload
Rocket body
Debris
Shape & HBR
Unknown shape, 0.2 m
Radar Cross Section
Medium (>0.1 m² and <1 m²)

Expand to show TLE details & history
Last TLE update: 14 hours ago

TLE from 14 hours ago
0 CZ-6A DEB
1 60858U 24140JM  26171.24280375  .00000230  00000-0  96074-4 0  9991
2 60858  88.8637 262.9994 0036270 146.9709 213.3758 14.22252577 95756
Epoch: 2026-06-20T05:49Z
TLE epoch observation values (Epoch: 2026-06-20T05:49:38.243Z)
Latitude
-0.00003°
Longitude
-92.87018°
Altitude
842.629 km
Speed
7.42 km/s
True Right ascension
17h 31m 59s
True Declination
0° 00' 00"
Sunlit
Object was in full shadow at epoch
Visualization orbit readout
Latitude
Unknown
Longitude
Unknown
Altitude
Unknown
Speed
Unknown
Apparent Right ascension
Unknown
Apparent Declination
Unknown
Sunlit
N/A
Visualization observer readout
Local Sidereal Time
07:14:51
Azimuth
Unknown
Elevation
Unknown
Doppler factor
Unknown
Orbital elements
Apogee altitude
840.782 km
Perigee altitude
788.605 km
Semi-major axis
7,192.831 km
Eccentricity
0.00363
Inclination
88.8637°
RAAN
262.9994°
Arg. of periapsis
146.9709°
True anomaly
213.14802°
Mean anomaly
213.3758°
Eccentric anomaly
213.26182°
Mean motion
3.5579 °/min
Orbital period
101.18 mins
BSTAR
0.000096074
Loading maneuver chart data...
Computing Atmospheric mass density...
Loading historical data...
Loading historical data...
Loading historical data...
Loading historical data...
Loading historical data...
Loading historical data...
Loading historical data...

Documentation

Showing up to 5 results
|